Wind_Speed
1 1 1 1 2 1 0 1 3 4 4 3 3 3 4 4 4 4 4 4 4 4 4 5 5 5 6 6 6 6 6 5 2 1 1 2 2 2 1 1 1 3 4 4 6 3 3 6 9 11 5 3 4 2 3 2 3 5 4 4 3 4 4 5 7 7 4 5 6 5 4 8 5 2 1 1 7 4 2 4 3 4 3 1 1 7 18 23
1 1 1 1 2 1 1 0 1 4 5 4 4 4 4 4 4 4 4 4 4 4 4 5 5 5 6 6 6 6 6 4 1 1 1 3 4 3 1 0 1 3 5 4 7 6 5 5 8 9 6 3 3 3 3 2 3 4 3 4 3 5 4 5 7 6 3 4 6 5 4 6 6 5 3 2 1 1 2 2 5 5 2 0 3 9 16 20
1 1 1 1 1 2 1 0 1 2 4 4 5 4 4 4 3 4 4 4 4 4 4 4 5 5 5 6 6 7 5 2 1 2 2 2 4 4 2 1 1 3 4 5 6 6 4 3 4 5 5 3 2 3 4 4 2 3 4 4 4 6 4 4 6 7 5 4 7 4 3 2 3 4 2 3 3 1 3 4 0 2 6 4 4 8 14 18
2 1 1 1 1 1 1 1 1 2 3 4 4 5 4 4 4 4 4 4 4 4 4 4 4 5 5 6 5 5 4 3 1 2 1 2 4 5 3 2 3 4 5 5 4 4 4 2 2 4 4 3 4 4 3 3 1 2 4 3 5 4 1 3 6 6 4 4 7 5 3 1 3 2 2 6 5 3 7 7 7 9 10 9 7 7 13 17
3 2 1 1 1 1 1 1 1 1 1 3 4 4 4 4 3 3 3 3 4 4 3 4 4 5 5 6 5 5 4 4 2 2 2 3 5 5 4 3 3 4 4 5 4 3 3 3 5 5 4 3 5 5 2 3 2 3 2 3 5 4 1 3 4 3 3 4 5 6 4 3 2 1 3 8 6 6 6 6 9 9 10 12 10 10 12 14
3 2 1 1 2 2 2 1 2 1 2 2 3 4 4 4 3 2 3 2 3 3 3 3 4 4 5 5 5 3 2 1 3 2 3 4 6 5 4 3 3 4 4 5 5 3 3 4 6 4 3 3 3 3 0 5 3 3 1 1 2 3 1 2 2 2 4 7 5 6 3 2 3 1 2 8 8 7 4 5 7 7 10 14 12 11 11 12
3 2 2 2 3 3 2 2 2 2 2 2 3 4 4 4 3 2 2 2 2 2 2 3 4 4 4 4 3 3 2 2 2 4 5 5 6 5 4 2 2 4 3 4 6 4 4 7 5 3 4 3 1 2 1 5 5 6 1 1 0 3 3 1 2 2 5 6 5 4 2 2 4 3 1 5 9 5 4 4 3 7 11 14 11 9 9 11
4 3 3 3 4 4 3 3 3 2 2 2 3 4 4 4 3 3 2 2 2 2 2 3 4 4 4 2 2 3 2 2 3 6 6 6 5 4 3 1 2 3 4 7 6 3 3 6 2 3 4 2 3 2 2 3 5 5 3 2 0 1 3 2 3 1 3 4 2 3 2 3 5 3 0 7 9 4 3 3 5 8 11 10 9 8 8 10
6 5 4 4 5 4 3 3 3 3 2 2 4 4 4 4 4 3 2 2 1 1 2 3 3 3 4 2 5 2 3 2 5 7 6 6 5 3 1 3 4 3 5 8 6 4 3 1 2 3 3 2 3 2 2 2 1 1 4 2 1 1 4 2 1 2 1 0 2 4 2 5 2 2 4 7 6 1 3 5 5 7 9 8 7 8 9 9
6 5 5 5 5 4 4 3 3 3 3 2 4 4 4 4 3 3 2 2 1 1 2 2 3 3 2 2 5 1 3 2 7 8 7 7 5 2 1 3 4 4 5 7 7 6 4 4 3 3 5 2 3 2 2 2 1 2 4 2 2 1 4 1 3 3 2 2 2 4 5 5 4 2 4 5 2 4 6 6 4 6 8 8 6 6 9 10
7 5 5 6 5 4 4 4 3 3 4 3 4 4 5 4 4 3 3 2 1 1 2 2 3 3 1 2 4 3 3 2 8 8 7 7 4 2 1 3 3 4 4 6 7 6 4 4 4 4 2 1 2 3 2 1 2 2 3 1 2 4 4 2 3 4 1 1 4 6 4 4 4 1 6 3 2 4 6 6 4 6 6 6 5 5 7 9
7 6 5 5 5 5 4 5 4 4 4 4 4 4 4 5 4 4 3 3 2 1 1 2 3 2 2 2 2 4 3 3 7 8 7 6 4 2 1 2 3 4 3 4 5 5 5 2 5 4 0 2 2 2 1 1 2 2 3 0 4 8 4 2 2 4 4 2 5 6 1 5 3 7 6 2 3 3 6 6 5 6 5 4 5 5 6 10
7 7 6 6 6 5 5 5 5 5 5 5 5 4 3 4 4 4 3 3 2 1 0 1 2 2 2 1 3 3 3 4 6 7 7 6 4 2 0 1 2 4 3 5 5 4 5 2 5 5 2 5 2 0 2 3 3 0 3 2 3 7 5 2 1 2 5 3 4 4 2 6 8 10 6 1 5 6 5 6 6 6 5 5 5 5 6 10
8 7 7 7 6 6 7 6 5 6 6 6 5 3 2 3 4 4 3 3 3 2 0 1 1 2 2 2 4 3 4 4 5 7 7 6 5 3 2 1 2 4 5 6 6 5 5 3 7 6 2 4 2 1 4 6 4 1 1 2 3 2 4 5 1 4 6 2 2 4 2 6 9 10 5 3 6 7 7 7 7 6 6 5 6 6 7 9
8 7 7 7 6 6 7 6 6 6 7 7 5 2 2 3 3 3 4 4 3 2 1 1 1 2 2 3 4 3 4 4 5 7 7 6 5 4 3 3 3 4 5 5 6 6 5 4 6 5 0 2 3 4 4 4 4 3 1 3 3 1 5 8 2 6 5 1 1 4 3 7 9 9 4 3 5 6 8 8 7 8 7 7 6 7 7 8
9 8 7 7 6 6 7 7 7 7 7 7 4 1 2 3 3 4 4 4 4 3 3 3 2 4 2 2 2 3 4 4 5 7 7 7 6 3 4 5 4 4 5 5 4 4 7 6 4 3 1 2 5 5 4 3 4 4 1 2 2 1 3 6 2 4 3 2 0 1 3 4 5 5 4 2 6 6 7 8 9 9 8 8 7 7 7 7
10 9 8 7 6 5 6 7 7 7 6 5 2 2 3 2 3 4 4 6 6 4 4 3 2 3 0 2 2 3 3 5 7 9 9 7 5 5 6 5 4 4 5 5 4 3 6 6 1 1 3 3 3 4 3 2 4 4 2 1 4 3 2 3 4 3 1 3 2 3 4 6 6 5 2 3 6 6 8 10 10 9 8 7 7 7 8 8
11 10 9 8 7 6 6 7 7 7 6 4 0 3 4 4 4 5 6 9 8 7 5 2 3 2 3 3 3 2 2 6 7 9 9 7 6 6 5 3 4 5 5 5 4 3 4 4 2 1 3 3 2 5 3 5 4 3 3 2 3 3 3 4 4 2 3 1 3 4 5 11 12 10 6 5 6 7 10 11 8 8 8 8 7 8 9 9
12 11 11 9 8 7 7 7 6 6 5 2 3 7 7 5 4 4 6 7 5 3 1 3 3 3 4 4 2 2 5 7 8 8 8 7 7 6 5 5 5 6 4 1 2 2 1 3 4 2 1 2 3 6 8 8 6 6 6 4 4 3 4 5 5 5 4 2 4 7 7 11 12 11 9 6 6 8 10 9 7 7 7 8 8 9 10 11
13 12 12 11 9 8 7 7 6 5 4 2 7 8 5 3 3 1 1 2 4 4 3 4 5 4 1 2 2 7 7 6 4 6 8 8 9 8 5 5 6 5 3 3 1 1 3 3 2 5 7 8 9 8 6 5 6 6 5 4 3 4 4 5 4 6 2 3 6 8 8 11 11 11 11 4 5 7 10 10 10 10 9 9 10 11 12 13
15 14 13 11 10 8 7 7 6 5 4 6 9 5 2 3 3 2 3 4 9 6 3 2 2 2 1 1 7 9 6 3 3 3 9 9 9 7 1 2 4 2 1 3 3 2 4 4 8 9 9 8 7 6 6 5 5 6 5 2 2 3 5 7 4 5 1 3 6 5 6 11 12 12 11 3 5 9 12 12 13 13 12 10 11 13 13 10
17 15 14 12 10 8 7 5 5 5 4 7 9 3 2 3 4 1 3 2 9 9 7 2 2 4 3 2 8 7 4 3 1 2 9 8 6 5 1 4 5 4 1 2 3 3 3 4 12 9 5 5 2 4 6 4 3 4 3 2 2 3 4 7 5 4 1 3 5 5 4 10 12 11 11 8 8 11 12 13 13 13 12 11 12 13 12 9
19 18 15 13 11 8 6 5 5 5 5 8 8 5 3 3 4 2 3 2 5 5 5 5 4 5 2 1 8 8 2 4 4 5 10 9 4 4 4 5 5 4 3 4 5 4 2 6 11 6 8 6 3 4 6 3 1 2 3 3 3 4 2 4 5 4 1 1 2 5 5 8 10 9 10 12 10 10 10 12 13 12 13 14 12 11 11 12
21 20 18 15 12 10 7 5 5 6 8 9 10 10 7 7 6 4 3 1 3 4 3 7 6 5 6 3 9 10 2 3 5 6 13 11 5 3 5 5 5 5 5 8 8 6 6 6 2 6 8 8 5 4 6 5 3 4 5 6 5 5 6 5 4 4 3 3 3 4 6 7 7 7 10 8 4 7 10 9 12 13 13 13 10 10 12 13
24 22 21 17 13 11 8 5 7 10 8 8 12 13 11 9 7 5 3 2 3 5 3 4 4 6 11 7 11 10 1 3 4 7 15 15 9 4 3 3 4 5 8 6 6 4 8 5 4 7 5 6 7 4 5 7 4 4 5 9 10 8 7 5 3 5 4 5 4 3 4 6 5 5 9 6 4 7 7 7 12 14 12 10 10 12 11 10
28 25 23 20 16 13 10 5 9 12 8 8 12 15 13 10 8 6 4 3 3 4 1 4 3 8 12 8 9 6 2 4 4 8 16 16 10 5 3 2 2 5 7 5 3 2 5 3 5 7 5 6 6 4 6 7 5 3 5 9 11 8 5 4 2 2 1 4 3 2 1 6 7 6 8 7 7 10 8 8 12 12 10 8 9 11 9 9
26 28 26 23 20 19 12 4 9 11 6 8 14 18 15 11 9 5 3 3 4 4 4 2 2 7 10 10 12 8 2 5 2 6 11 12 8 3 3 5 2 3 4 4 2 3 4 4 4 6 5 6 5 4 6 8 8 3 5 5 7 7 6 5 5 3 3 3 4 2 3 4 8 7 7 6 7 11 11 13 13 12 11 10 10 10 9 10
20 28 29 26 25 25 17 8 12 14 8 6 14 21 16 12 9 4 4 1 4 3 4 2 2 5 4 8 13 8 2 3 5 4 4 7 7 2 2 8 6 7 5 6 5 4 4 7 8 8 4 4 6 5 7 10 6 5 3 6 6 6 5 4 5 2 1 3 5 2 3 3 8 6 3 2 4 9 13 15 15 12 12 10 10 10 9 9
15 22 30 31 27 29 24 15 12 12 10 7 15 22 18 13 7 5 4 3 3 1 2 2 3 2 3 5 7 3 2 2 2 2 2 4 4 2 3 7 5 7 4 3 5 3 1 5 7 8 6 6 5 2 7 11 5 4 5 7 6 6 5 5 4 3 3 2 6 6 5 3 7 5 1 1 2 8 12 12 11 10 10 9 9 9 8 7
12 14 27 32 29 30 26 19 18 13 7 10 18 24 19 10 4 3 3 4 2 1 1 2 3 3 7 9 3 1 3 1 1 2 3 1 1 4 1 3 5 5 1 3 1 3 2 1 2 4 4 5 4 3 2 6 6 6 6 6 6 6 5 4 3 4 2 4 8 8 9 6 6 4 4 3 4 7 8 8 8 8 8 8 7 6 6 6
11 10 20 31 35 33 22 16 25 21 8 13 22 23 15 4 3 5 6 2 0 1 2 2 2 5 12 14 7 2 3 1 1 5 3 1 2 3 0 1 4 4 2 4 3 3 4 1 1 2 2 4 6 5 3 2 4 5 4 5 4 4 4 4 4 4 1 6 5 4 5 7 6 6 4 5 6 6 7 7 8 8 8 8 6 5 5 5
13 10 14 28 36 35 25 17 26 27 13 17 21 13 7 3 1 6 5 1 1 4 5 4 4 7 12 12 9 7 6 2 3 7 7 5 5 6 6 6 5 3 3 7 4 3 2 4 3 3 1 4 6 4 4 4 2 4 4 6 4 2 3 3 3 0 3 6 3 1 2 4 8 8 7 11 13 11 9 8 8 9 9 8 6 5 5 5
14 12 12 22 33 37 31 21 22 27 20 21 14 1 2 6 6 8 7 4 3 3 4 4 5 9 12 9 6 6 4 2 5 6 4 5 6 7 6 6 6 3 3 5 3 1 3 5 3 0 2 3 7 7 2 1 4 5 5 6 5 2 0 3 3 2 4 5 3 2 2 3 6 5 10 17 17 13 8 7 9 9 9 9 8 7 5 5
14 14 12 15 29 38 34 24 23 26 23 18 9 1 3 7 8 11 14 11 4 2 2 3 6 9 11 7 6 7 5 3 7 6 3 6 6 7 7 7 6 3 3 4 3 5 5 6 5 7 3 6 10 8 5 6 5 5 4 5 5 5 4 4 4 3 4 3 3 2 2 4 3 3 8 11 11 10 7 7 8 8 8 7 7 8 6 6
14 17 15 13 23 37 36 29 26 27 24 12 6 7 9 8 7 10 13 10 3 3 3 2 7 8 7 3 2 7 5 3 6 6 4 7 7 8 8 8 10 6 5 4 2 3 5 7 6 3 1 9 11 5 5 7 3 2 2 4 4 6 5 2 3 5 3 2 4 3 4 5 4 6 9 7 9 9 7 7 8 8 7 4 6 8 6 6
15 16 17 14 19 30 35 30 27 31 25 9 5 9 10 10 9 8 7 6 5 5 5 3 5 5 6 2 2 6 3 2 6 5 3 4 4 7 8 8 12 12 9 7 3 2 3 5 5 2 2 4 6 3 3 4 3 2 3 4 4 4 6 2 2 1 3 2 4 3 5 5 3 8 10 8 11 11 8 8 9 9 6 4 8 8 6 6
14 12 13 15 17 23 31 31 30 32 20 8 9 10 8 9 9 6 3 3 5 8 8 3 2 5 7 4 3 7 3 2 4 5 4 3 3 6 9 6 8 16 14 7 3 3 5 3 4 1 1 3 1 3 4 3 4 6 4 6 2 2 3 2 1 3 3 3 5 2 6 5 2 6 5 1 8 12 11 11 11 9 7 7 10 9 6 7
13 10 10 18 21 19 26 32 33 26 11 7 11 9 7 9 10 7 2 3 5 7 6 6 5 5 7 6 5 8 7 4 6 6 4 4 5 8 12 6 6 16 16 7 2 3 5 2 4 1 2 3 3 3 2 5 2 5 4 4 4 2 1 2 2 1 0 3 5 3 4 4 6 6 3 2 7 10 11 10 8 9 9 8 10 10 6 6
11 7 7 14 20 19 25 33 30 16 6 8 10 7 7 12 15 10 1 2 3 6 7 8 5 3 6 7 5 7 8 8 9 8 5 5 5 7 13 10 6 12 15 10 6 3 3 4 3 1 1 1 3 1 4 2 2 3 2 2 2 2 4 3 3 3 3 3 4 4 3 4 7 7 7 10 11 11 9 6 5 9 9 8 9 8 5 5
6 4 4 7 12 19 29 30 18 8 6 8 9 7 7 10 13 11 6 4 2 4 6 7 5 5 6 7 5 5 7 8 9 8 6 7 6 5 10 12 6 7 11 11 7 2 2 4 4 2 2 1 2 4 8 10 7 4 4 4 3 1 2 1 1 3 4 3 2 3 6 7 5 5 10 13 12 11 9 6 7 9 8 8 9 7 5 5
3 5 4 6 13 23 28 18 7 7 6 5 8 8 8 8 6 9 13 8 3 2 2 3 5 6 7 7 5 4 6 6 7 7 5 7 9 6 7 12 9 7 8 7 7 5 3 4 4 2 1 4 5 4 5 9 8 7 7 8 9 6 4 3 3 2 2 2 4 3 8 10 4 5 8 9 9 9 8 7 7 7 8 9 8 6 6 7
4 6 4 8 23 30 20 6 5 7 5 6 9 8 6 6 4 6 12 9 2 2 3 3 4 6 6 8 8 6 7 6 7 7 5 8 12 9 7 11 12 13 11 8 11 9 4 3 4 3 4 6 5 3 2 4 3 2 3 5 7 6 6 6 5 4 2 2 2 3 5 9 2 4 6 6 6 6 6 7 7 7 8 8 7 5 5 6
4 7 6 8 29 32 12 4 7 6 5 5 7 6 2 3 4 4 8 10 7 3 2 4 3 4 4 5 7 9 9 7 9 11 7 8 11 8 7 10 12 14 10 6 8 6 3 3 3 1 3 3 4 5 2 1 2 1 3 3 6 7 7 6 4 4 4 5 3 3 6 8 1 0 3 3 4 3 3 7 7 7 7 7 7 6 5 5
3 6 6 8 27 27 9 5 8 6 6 5 5 7 5 3 5 7 8 11 11 7 7 7 4 3 4 2 4 8 11 8 8 12 10 6 7 6 8 13 13 13 9 7 7 7 4 5 4 2 1 3 4 4 3 2 3 4 3 4 7 11 8 3 1 3 2 7 9 5 9 7 1 4 3 3 4 5 6 7 6 6 7 7 7 7 5 4
3 4 3 7 19 17 7 7 8 8 9 10 8 9 10 6 5 8 8 9 10 8 8 9 5 1 1 2 2 4 10 10 7 9 9 5 4 3 8 13 14 12 10 8 10 10 7 6 7 6 7 7 7 6 5 4 3 2 4 7 9 11 12 7 2 2 6 7 9 9 12 6 2 5 4 3 4 5 7 7 6 6 7 7 8 7 5 4
2 4 3 4 8 8 6 8 10 8 7 11 9 8 13 11 6 7 7 6 8 9 7 7 4 1 1 3 5 5 8 11 8 5 6 7 4 2 6 12 13 14 11 7 8 7 4 5 10 12 12 13 13 9 5 9 7 7 10 13 12 12 13 10 5 7 7 3 5 13 15 10 7 4 4 5 5 6 7 6 6 6 7 8 9 8 5 5
3 4 4 3 3 5 7 9 11 9 7 8 6 6 13 14 9 7 7 7 9 10 7 5 5 7 8 7 7 9 9 10 10 8 7 7 4 2 1 7 11 15 12 5 4 4 3 4 11 16 17 20 20 12 9 14 14 16 16 15 15 15 13 12 13 12 6 4 10 14 10 13 17 9 7 9 7 7 8 7 8 8 8 8 8 6 6 6
4 4 3 2 2 4 7 8 10 12 12 11 6 7 13 16 14 9 7 8 9 9 7 4 6 12 16 14 10 9 10 9 10 12 10 5 2 0 1 2 7 11 9 4 4 4 3 5 11 15 18 22 21 12 12 14 14 15 17 18 18 18 17 19 22 17 9 8 18 12 10 14 21 11 11 12 9 10 11 10 10 8 8 9 7 6 7 7
4 4 3 3 2 3 5 4 3 6 13 13 9 10 13 15 17 13 8 7 9 11 11 10 12 16 18 17 13 9 11 11 10 12 9 5 4 3 2 3 5 6 8 7 5 3 3 5 9 13 15 20 20 11 12 13 11 10 15 18 19 20 23 25 25 20 14 15 21 15 9 17 18 10 10 10 9 11 10 7 8 7 9 10 9 9 9 8
5 3 3 3 3 5 6 5 2 3 7 8 8 11 14 16 18 15 10 10 9 10 14 17 19 18 18 17 15 15 16 14 14 14 9 8 7 6 5 5 3 3 6 8 5 3 4 5 5 7 8 14 18 11 10 12 10 9 11 13 17 21 24 24 20 16 13 15 20 18 15 19 13 5 7 8 7 8 7 7 9 10 10 11 10 10 10 10
11 8 5 2 2 4 4 4 4 4 5 6 5 7 11 16 19 16 13 14 15 13 16 21 21 15 15 18 17 19 22 19 20 20 12 10 9 7 6 6 5 5 6 7 4 3 5 4 1 3 5 12 16 11 9 8 6 6 9 13 20 22 19 16 13 13 13 16 19 16 15 18 9 4 5 7 6 8 10 10 11 10 9 11 11 12 11 11
14 12 9 4 3 5 4 3 4 5 4 5 6 8 10 12 14 14 11 11 14 15 14 19 21 14 12 17 21 24 26 24 22 17 9 6 4 1 2 2 3 5 7 6 2 2 5 5 3 4 7 12 11 7 8 6 2 6 13 19 23 19 11 8 11 16 18 16 15 13 15 19 12 6 7 7 7 10 12 11 12 12 11 10 10 11 12 12
Wind_Direction
206 203 201 226 251 250 248 270 257 240 223 212 207 217 217 214 218 216 227 233 240 260 273 286 302 308 309 318 324 333 337 330 293 192 187 217 246 298 316 10 83 20 2 352 2 16 22 17 2 8 49 74 13 339 8 23 60 55 80 92 122 173 194 180 179 194 173 184 199 217 190 140 164 227 171 64 40 61 52 16 332 333 347 244 150 127 142 154
215 206 208 253 255 273 252 216 288 255 235 219 214 221 219 217 226 223 230 242 252 268 280 291 304 304 311 324 326 336 337 328 289 281 290 245 239 246 258 77 83 16 11 16 19 30 38 346 338 10 45 53 352 343 24 9 61 83 109 95 176 200 201 189 180 191 179 174 181 195 179 154 175 169 140 170 323 28 99 341 345 350 326 295 138 140 149 158
226 217 205 288 288 307 283 260 350 274 245 227 218 216 216 223 229 230 237 247 257 270 286 296 304 304 316 324 328 340 340 5 355 283 277 236 204 201 191 127 77 39 32 25 16 25 36 310 324 23 48 54 355 358 36 13 45 130 107 84 227 213 222 220 186 201 217 173 158 183 180 164 207 161 142 179 178 236 198 212 248 259 233 201 186 160 157 162
245 251 238 284 306 304 308 314 349 308 264 237 221 211 210 219 224 232 243 252 265 274 286 298 303 307 319 325 333 337 359 53 346 237 170 159 160 160 150 120 70 56 37 22 15 12 13 349 29 54 63 46 340 18 48 353 37 107 102 148 217 175 185 225 194 217 223 166 156 153 125 165 237 170 157 147 141 270 246 217 195 205 203 189 205 186 168 167
242 264 264 283 303 280 294 278 236 305 270 237 221 212 208 216 226 236 244 254 267 274 289 297 301 312 321 329 337 329 18 55 277 212 144 163 148 142 129 96 67 61 38 27 24 22 23 40 59 48 55 49 349 28 36 312 74 73 57 188 196 138 113 225 195 216 160 124 118 123 142 186 186 133 161 152 166 232 233 228 213 203 186 178 186 180 173 171
244 252 267 295 312 277 272 273 241 235 235 219 207 202 201 210 218 232 249 260 269 275 288 297 309 318 326 336 339 340 76 87 264 177 155 161 141 138 122 87 71 47 30 43 35 45 48 31 53 51 47 56 9 55 336 307 54 97 356 317 208 172 208 226 167 208 144 118 133 158 180 147 115 278 192 172 204 225 240 263 233 213 182 171 164 165 171 176
243 240 254 290 317 303 298 300 272 246 217 199 201 194 193 200 200 214 244 264 264 274 289 306 319 321 336 347 348 22 94 249 256 161 168 155 144 139 115 86 66 28 18 49 34 58 71 38 63 113 80 73 163 99 343 319 38 91 125 317 228 183 222 239 103 167 135 134 187 176 122 126 170 217 73 212 236 253 303 307 205 172 158 157 154 165 177 180
240 240 254 279 298 306 312 309 308 285 229 205 205 196 192 194 195 205 218 241 254 277 295 313 328 331 345 360 55 25 350 262 189 166 172 157 151 139 106 37 27 21 49 51 36 107 89 45 90 149 86 92 166 109 346 346 33 69 139 223 138 168 260 335 45 64 123 133 174 112 125 223 200 189 308 246 247 280 342 49 115 132 137 153 163 172 176 178
242 241 248 264 273 290 308 306 318 313 287 236 215 204 202 198 200 206 209 230 235 276 305 328 330 341 352 34 87 57 281 230 173 175 173 166 158 137 82 21 21 28 66 56 47 97 94 87 195 185 153 168 123 87 343 46 16 162 144 184 145 6 321 3 40 299 12 66 104 118 251 283 265 227 274 257 234 208 72 83 111 132 143 166 173 179 178 178
252 242 243 258 267 282 299 302 311 311 309 273 230 215 209 206 208 206 202 221 212 281 315 340 337 357 1 36 85 122 269 203 182 181 175 177 168 158 17 11 14 31 65 60 55 68 91 172 188 149 141 125 87 65 351 90 151 158 130 145 112 359 311 117 199 267 336 314 184 175 241 284 335 300 254 273 208 152 104 99 136 147 164 180 179 191 187 189
272 269 254 256 263 274 284 294 308 307 304 286 249 223 207 202 200 200 199 202 200 266 313 346 359 1 359 65 113 194 260 186 189 183 180 184 176 204 350 1 7 41 60 65 67 67 83 164 157 124 127 107 81 29 358 118 122 101 111 143 6 344 301 159 203 249 146 264 192 166 228 290 357 273 233 252 173 159 129 140 171 167 185 192 190 205 200 206
281 298 287 265 262 265 269 282 301 311 313 307 278 241 206 197 194 196 193 183 193 226 305 1 13 358 9 49 150 214 253 198 193 183 183 187 178 218 342 11 29 47 51 74 83 71 63 135 124 97 324 140 115 22 79 115 88 75 74 117 313 354 345 213 229 228 170 196 185 147 282 289 242 225 249 264 161 129 128 163 191 195 208 211 213 221 216 220
278 294 299 291 286 289 291 287 292 304 313 312 294 267 218 201 193 190 186 179 185 188 254 24 14 19 47 302 238 241 250 211 199 189 184 190 185 204 227 95 59 54 63 86 94 69 49 52 111 108 109 107 124 245 97 48 47 7 46 63 326 360 346 276 335 196 169 182 178 146 267 272 247 244 262 223 155 125 144 195 210 213 223 224 222 226 229 227
272 280 288 298 305 315 322 312 286 290 304 310 309 285 229 195 187 185 172 173 178 178 182 73 27 45 75 252 271 294 254 219 204 196 187 193 184 175 165 107 85 80 80 86 87 62 45 68 96 98 90 88 128 90 37 10 21 12 4 43 17 6 280 286 315 154 160 189 157 133 226 267 267 268 266 203 172 155 185 214 215 221 227 224 225 224 231 229
266 272 281 291 302 316 327 322 294 293 307 312 323 309 217 180 182 171 159 168 157 152 150 96 63 72 60 280 292 312 251 214 196 194 187 186 170 157 156 122 110 108 92 81 82 64 54 81 81 73 38 19 57 70 28 353 13 30 340 314 348 171 269 302 281 166 159 215 76 128 219 271 269 276 286 198 183 179 203 221 219 224 225 222 229 223 230 236
261 264 273 282 294 309 318 319 311 309 309 309 319 300 179 169 165 150 152 149 130 123 101 83 86 95 86 278 302 309 242 199 186 187 182 175 166 148 139 126 101 103 98 75 84 69 46 55 60 60 131 57 68 84 50 14 348 359 76 255 282 193 283 316 300 221 187 128 40 181 223 276 276 291 331 162 185 196 219 237 229 227 228 222 227 227 231 238
257 259 265 273 281 291 304 311 316 317 306 303 310 161 151 146 151 143 139 125 114 100 87 97 102 96 89 268 276 277 221 183 184 181 175 170 167 151 136 117 81 92 91 65 67 45 25 38 46 339 48 57 88 96 64 353 290 315 18 238 245 212 235 299 306 279 124 119 211 220 230 252 263 286 316 186 189 195 223 240 235 228 229 227 228 233 233 230
256 257 258 264 266 271 289 299 308 312 303 306 327 143 127 115 127 132 136 128 106 75 67 83 80 75 266 251 215 231 164 165 174 169 168 165 158 148 129 104 94 87 63 38 36 31 11 21 53 46 23 14 69 103 140 220 208 199 196 200 249 238 219 254 286 247 137 107 224 207 243 256 263 273 260 217 188 196 227 238 243 239 229 229 229 230 233 229
255 256 255 259 258 259 276 287 296 302 300 305 132 129 115 96 98 118 135 134 122 100 158 215 144 140 225 243 195 118 113 140 156 163 163 154 146 131 101 91 90 82 78 62 354 17 56 47 59 98 221 227 190 166 185 201 165 160 179 156 175 212 244 239 254 257 187 153 235 219 234 253 260 267 261 231 187 207 240 248 254 250 232 227 227 230 230 227
253 254 252 255 254 254 263 279 293 295 289 187 144 125 115 94 70 25 202 188 206 173 160 208 189 160 214 284 136 118 115 114 129 162 159 155 147 122 79 56 52 57 100 161 193 19 94 111 183 208 208 203 204 197 176 159 125 115 130 132 173 193 267 261 253 290 240 159 248 233 233 257 258 263 265 237 177 220 246 251 250 244 235 228 225 229 227 228
249 249 251 250 250 251 252 273 296 289 265 188 161 134 167 164 127 232 234 253 259 237 210 240 203 211 301 181 157 141 122 79 24 154 161 161 148 138 101 42 79 67 265 176 149 34 79 148 226 225 205 199 205 185 135 113 99 91 122 163 261 207 251 260 247 305 323 169 264 263 247 262 259 261 267 222 176 227 234 236 244 241 236 231 227 231 229 228
247 245 247 247 245 245 244 268 289 276 251 192 176 161 241 182 121 149 151 221 270 248 221 242 347 281 273 167 175 159 85 85 330 228 174 158 147 170 174 81 133 176 252 127 107 32 54 224 241 228 165 130 113 137 135 132 110 90 110 149 261 249 268 277 278 322 356 175 265 297 276 267 263 261 264 239 217 235 232 228 240 240 237 234 227 231 229 223
248 243 242 243 240 231 231 253 262 259 235 197 189 183 186 153 110 99 123 118 291 266 206 197 225 242 238 220 192 176 103 152 187 224 185 157 145 182 142 118 150 142 147 177 156 134 156 250 248 200 139 132 101 105 125 126 149 160 151 158 239 254 259 276 290 326 350 188 273 308 300 275 269 265 260 248 234 246 246 236 243 242 240 239 231 226 222 219
248 244 240 237 234 222 213 232 246 246 230 213 210 197 165 142 131 126 126 44 301 283 232 199 199 198 196 206 182 176 187 182 171 196 183 160 132 159 158 151 133 127 190 198 172 173 213 252 244 135 150 163 145 113 131 149 239 239 191 185 218 233 218 231 284 330 342 348 3 339 310 281 270 263 258 264 273 268 256 245 252 250 243 246 246 236 222 218
247 244 238 231 227 215 195 202 233 230 220 222 217 194 161 144 138 124 105 23 288 292 297 206 193 203 197 174 165 169 160 234 215 188 177 167 149 143 176 156 121 176 208 187 164 216 246 246 111 117 148 158 150 165 177 171 206 273 224 200 212 220 224 237 333 11 1 329 348 14 306 281 291 272 258 282 318 278 258 239 250 253 249 243 246 244 229 220
244 243 237 228 220 199 181 206 230 215 206 230 212 178 157 147 129 117 96 40 283 273 270 182 177 194 191 161 151 142 77 255 243 162 167 175 168 130 148 162 86 198 196 156 165 234 246 236 114 121 138 146 160 212 223 178 151 271 246 206 208 203 202 207 150 61 298 262 294 59 207 273 295 270 250 261 271 268 267 253 251 256 256 240 236 243 233 219
241 241 235 228 214 188 177 213 206 184 191 240 202 171 159 148 128 117 89 18 282 210 153 197 189 172 179 164 151 136 194 232 120 138 166 176 182 98 135 177 124 199 175 123 225 245 198 201 124 122 118 129 163 224 221 166 137 239 253 179 176 177 187 191 159 177 234 261 312 41 129 266 283 262 249 252 261 274 275 265 261 259 256 250 243 241 232 219
243 240 234 228 214 198 197 196 173 177 209 228 179 170 163 153 143 108 100 252 276 150 142 228 173 143 144 160 155 140 228 193 124 187 181 156 181 70 156 199 176 185 178 144 214 261 173 184 183 170 155 160 191 214 186 154 150 247 220 126 136 150 158 139 124 159 351 4 302 286 127 253 271 262 288 311 255 268 267 261 262 260 257 257 252 245 236 225
252 241 233 227 216 207 210 207 190 198 217 192 166 168 161 154 151 78 93 211 264 133 148 132 141 131 77 146 168 130 42 52 130 223 56 132 183 55 172 203 158 166 193 163 205 252 199 200 193 169 172 200 205 222 178 164 179 215 136 96 78 80 82 81 99 107 52 356 255 223 163 235 270 242 238 9 231 249 259 260 262 264 263 259 255 252 240 225
264 246 233 224 208 201 204 212 218 214 195 175 167 161 154 144 127 110 184 218 241 233 187 133 167 165 134 149 191 344 98 48 9 99 55 115 95 32 150 160 94 134 223 350 233 242 289 289 194 161 178 188 139 75 176 169 157 142 111 68 48 37 38 47 54 74 66 276 254 218 184 197 273 258 197 209 214 223 243 264 274 278 277 264 257 257 240 220
270 258 236 219 204 196 192 209 217 209 179 164 163 153 144 101 71 168 205 228 320 214 149 155 179 143 152 163 179 191 131 48 133 144 141 158 100 53 98 119 76 82 338 305 285 304 330 339 250 232 174 130 100 71 23 61 115 114 95 81 67 354 6 20 360 45 159 252 263 247 179 176 236 259 232 251 262 240 228 242 263 273 278 272 270 268 245 226
271 272 247 222 210 200 199 214 212 204 183 156 161 157 146 138 203 207 215 63 218 214 171 176 194 167 169 173 177 174 154 135 176 167 160 158 171 183 191 189 160 108 259 238 244 333 288 235 267 314 209 146 115 92 32 18 77 99 105 109 101 331 352 344 308 61 228 253 259 244 131 185 239 254 262 266 266 254 230 222 237 253 268 277 282 272 245 220
271 275 265 231 215 206 207 215 208 200 183 157 158 224 151 171 202 206 206 200 206 211 163 159 168 165 165 168 184 171 147 170 177 173 169 152 177 207 224 222 181 142 202 198 176 181 264 289 294 205 251 187 157 157 156 195 180 159 148 140 139 149 190 266 269 272 262 267 263 205 179 248 267 265 249 247 251 254 245 232 234 240 254 270 285 284 266 227
275 266 277 250 221 214 211 211 206 193 176 157 147 133 188 196 201 195 206 219 222 34 62 134 135 152 165 174 190 164 152 221 180 156 165 154 171 212 227 234 212 134 101 148 167 181 214 278 216 180 206 189 184 189 164 139 161 185 155 138 158 162 168 214 219 227 253 282 290 248 192 202 212 256 250 244 260 274 267 257 254 252 250 260 280 283 273 242
282 258 270 271 229 219 211 210 209 184 165 157 152 168 189 202 202 204 212 214 201 37 20 79 110 139 185 227 236 178 165 215 178 151 168 173 188 203 196 208 202 166 134 175 213 168 200 264 240 205 196 173 183 193 117 109 133 227 115 118 185 185 165 194 203 181 189 306 293 234 221 217 209 271 274 261 273 277 272 278 273 265 264 275 276 264 252 241
299 267 262 265 240 222 210 209 200 175 161 154 172 186 199 203 202 208 207 192 174 127 96 69 81 134 195 219 251 213 182 105 156 162 195 203 220 207 197 209 196 185 183 182 191 157 172 277 282 350 10 180 186 175 123 137 172 159 139 176 207 173 144 155 276 61 79 275 265 202 239 284 312 282 272 256 263 270 277 278 265 261 274 293 276 258 235 231
311 284 256 253 249 227 213 206 188 171 163 158 182 196 210 219 220 214 189 151 153 137 129 162 174 159 184 191 210 208 190 98 155 176 190 197 241 211 203 225 196 194 200 179 185 199 162 251 298 96 186 268 270 114 62 24 125 129 182 202 159 77 100 117 255 354 40 255 271 227 235 271 281 270 297 278 251 262 265 261 263 275 280 268 268 261 231 218
312 290 259 250 245 228 212 200 182 171 169 173 189 203 210 226 237 224 179 102 128 137 157 197 192 166 178 189 199 191 182 174 174 187 186 186 240 208 190 208 204 201 204 177 193 233 155 206 306 52 186 290 2 100 64 356 68 131 183 182 119 127 201 117 163 231 198 251 284 278 246 243 208 223 280 222 223 241 251 253 262 270 264 255 265 265 237 207
307 287 274 250 236 227 209 192 177 174 185 180 193 209 205 223 234 225 188 55 158 165 186 203 186 165 186 184 172 173 188 188 172 180 189 185 231 212 182 192 209 204 199 181 192 223 143 192 262 329 251 301 12 144 185 216 37 65 104 133 105 149 171 159 165 168 170 230 280 300 291 245 215 200 200 213 218 215 221 230 239 250 250 246 257 262 239 205
299 264 264 236 223 215 198 185 178 191 196 185 198 198 191 219 233 232 244 278 247 191 201 204 174 164 189 190 176 170 193 198 179 186 201 186 213 241 192 188 187 182 183 183 194 176 120 204 228 312 334 173 196 218 192 180 168 151 157 170 182 125 107 164 198 134 141 175 225 288 288 259 229 192 194 208 217 211 203 201 222 244 248 245 252 252 230 212
265 257 247 212 203 190 180 180 195 204 194 198 208 201 197 211 218 219 225 242 312 321 248 218 189 181 176 182 202 190 183 194 186 192 216 198 204 237 205 182 165 142 141 168 205 203 181 199 179 160 216 202 219 249 206 191 188 180 185 191 187 169 138 166 239 213 141 177 184 206 275 267 230 185 198 205 210 210 207 204 218 245 248 249 258 242 214 210
239 248 243 195 186 174 165 191 222 197 204 206 205 205 202 208 201 193 202 209 255 317 317 300 223 199 179 181 195 182 167 185 191 192 221 215 209 222 212 182 162 152 147 170 204 201 151 114 141 176 218 218 238 284 219 202 192 155 207 203 178 170 159 165 214 217 160 230 190 125 275 276 244 173 200 213 217 211 206 206 215 246 251 257 276 264 232 226
238 249 278 209 181 169 161 234 207 203 235 218 213 218 214 220 209 179 181 193 200 189 245 276 225 200 215 188 180 177 175 188 195 197 214 223 221 223 196 174 159 155 160 180 201 194 116 118 164 235 306 306 307 328 1 118 123 175 236 182 162 193 192 172 194 180 167 218 175 113 264 268 316 288 230 241 260 268 247 219 216 246 265 273 279 272 251 239
258 253 291 224 188 176 173 222 209 219 227 225 225 208 218 256 206 188 183 186 191 185 207 235 225 206 227 170 159 186 191 196 203 207 211 215 231 221 174 172 170 167 179 187 179 177 182 182 163 148 290 326 333 321 303 240 193 205 217 184 191 201 192 175 84 98 214 217 167 165 253 246 255 314 327 9 317 289 269 243 219 233 263 275 281 279 257 230
273 249 254 217 201 193 197 213 217 225 213 217 221 197 210 232 198 202 200 183 191 191 204 224 217 203 248 171 190 204 201 212 217 209 213 224 259 249 182 181 182 187 203 198 177 173 179 185 170 172 207 225 224 226 227 202 172 188 205 196 203 198 189 199 198 179 234 215 159 194 242 245 350 318 316 350 324 285 271 261 236 230 251 265 273 276 263 226
262 250 216 198 204 211 225 218 220 232 214 213 216 200 211 219 205 205 199 183 194 195 213 230 191 146 294 217 231 234 221 234 235 205 208 215 231 263 193 184 188 203 212 197 176 166 150 188 189 190 207 222 230 228 155 128 147 202 209 197 200 202 194 197 207 215 218 169 182 222 233 252 276 272 268 281 269 256 266 276 268 255 253 256 258 262 256 229
242 249 225 201 198 210 225 222 220 224 210 201 196 187 207 216 216 204 196 201 194 184 212 238 179 192 213 207 225 232 222 234 238 226 217 204 209 311 197 177 196 211 207 189 179 153 116 200 201 204 215 226 234 226 157 148 175 201 203 196 199 201 190 195 216 217 165 136 243 235 205 244 257 231 224 252 246 247 260 257 256 255 249 250 252 253 247 236
229 248 248 255 244 211 215 220 220 221 214 204 190 190 207 213 212 202 190 206 203 184 193 219 200 208 209 198 202 220 218 220 231 232 227 205 176 14 38 193 217 210 190 180 195 156 153 214 208 211 222 231 235 217 172 177 189 196 199 196 197 195 190 202 218 216 165 187 247 239 161 222 249 231 216 230 223 232 241 236 241 250 252 254 250 246 247 241
225 249 265 280 273 249 247 240 230 233 225 214 201 203 208 211 213 212 193 192 207 198 194 207 212 209 210 202 194 207 216 209 219 226 214 190 183 166 165 228 234 199 172 183 200 165 181 217 209 211 223 235 237 211 176 190 194 194 202 198 194 195 199 207 216 216 202 217 247 250 214 237 252 234 217 218 208 226 245 253 253 246 243 247 244 244 248 242
218 238 251 259 253 258 275 269 262 280 246 224 210 211 210 210 211 212 203 193 197 195 196 212 218 208 205 205 198 212 220 213 223 227 194 175 196 189 189 206 190 158 178 193 195 179 203 216 203 198 216 239 240 216 183 194 194 196 209 206 202 203 206 212 215 214 215 232 248 255 257 259 257 210 213 220 210 235 257 258 249 239 234 240 241 242 245 242
233 256 269 304 272 232 246 253 240 259 255 233 220 216 217 219 211 206 208 204 199 194 194 209 219 211 204 205 202 215 222 217 225 230 208 192 205 199 206 209 163 149 183 195 179 159 193 214 125 133 202 241 243 221 192 194 197 214 223 214 212 212 209 208 210 206 205 221 239 247 254 257 247 158 205 222 211 237 247 239 243 245 235 232 235 238 239 239
231 253 257 262 273 237 227 245 233 233 241 234 232 226 226 230 216 206 214 212 206 208 203 207 214 211 204 205 204 215 222 219 223 229 216 211 235 212 216 222 159 157 167 177 182 140 173 196 187 164 211 243 247 203 163 152 167 237 232 221 217 214 200 188 208 217 210 209 224 232 239 249 247 217 228 230 216 233 242 237 240 246 241 232 232 236 238 238
Height
812 812 813 813 813 812 812 812 812 812 812 812 812 812 812 812 812 812 812 812 812 812 812 812 812 813 812 812 812 812 812 811 811 810 810 810 810 810 810 810 810 809 809 809 808 808 807 807 807 806 806 808 812 813 812 814 816 817 827 834 839 848 843 837 840 840 835 831 832 833 832 833 834 834 833 834 835 838 840 840 841 840 839 839 838 837 837 837
811 812 812 812 812 812 812 812 812 812 812 812 812 812 812 812 812 812 812 812 812 812 813 812 813 813 813 813 812 812 811 810 810 810 809 810 810 810 810 810 810 810 810 809 809 808 809 809 808 808 808 812 815 814 814 816 817 824 834 836 838 842 836 832 833 834 833 830 830 832 833 833 832 832 832 834 838 840 839 839 842 841 839 839 838 838 838 838
811 811 812 812 812 812 811 811 811 811 811 811 812 811 812 812 812 812 812 813 812 813 813 813 813 813 813 813 812 812 811 810 811 810 809 809 809 810 810 810 810 810 810 809 809 809 809 810 809 810 811 815 818 816 816 817 819 827 832 833 836 835 832 832 832 831 830 829 830 832 834 834 832 832 832 834 838 840 837 836 838 838 838 838 838 838 839 839
811 811 811 811 812 811 811 811 811 811 811 811 811 811 812 812 812 812 812 813 813 813 813 814 814 813 814 812 812 812 810 812 812 810 809 809 809 810 810 811 811 810 810 810 809 809 809 809 809 810 813 817 820 818 820 821 821 827 830 831 833 833 832 831 830 831 830 831 831 831 835 834 833 833 833 835 838 839 835 832 831 831 832 836 838 838 838 838
811 811 811 811 811 811 811 811 811 811 811 811 811 811 812 812 812 812 813 813 813 814 813 814 813 813 813 812 813 811 811 818 814 808 809 810 810 810 810 811 811 811 810 810 809 809 809 809 810 812 816 819 821 820 823 824 823 827 831 832 832 833 832 828 830 832 832 833 831 832 833 832 832 833 833 834 834 833 829 828 827 826 828 832 834 836 837 838
810 810 811 811 811 811 811 811 811 811 810 811 811 811 812 812 812 813 813 813 813 814 814 814 813 813 813 812 812 810 814 820 813 808 811 810 810 811 811 811 811 811 811 810 810 809 810 810 812 816 819 822 824 824 824 825 824 827 832 833 833 834 831 828 830 831 832 831 830 832 831 831 833 832 834 833 829 827 827 828 828 827 829 830 832 834 836 837
810 810 811 811 811 811 811 811 810 810 810 810 811 811 811 812 812 813 813 813 813 813 813 813 813 813 812 812 812 811 814 815 809 810 811 810 811 811 811 811 811 811 810 810 810 810 812 813 814 819 821 824 826 826 825 825 823 825 831 832 832 833 830 829 831 831 831 829 830 832 830 832 832 832 836 833 826 827 829 829 828 828 829 830 832 834 835 835
810 810 811 811 811 811 811 811 810 810 810 810 810 811 811 811 812 812 813 813 813 813 813 813 813 812 812 812 812 814 815 812 809 810 810 810 811 811 812 812 811 811 811 811 811 811 813 815 818 821 822 825 825 825 826 826 825 826 830 832 831 832 831 831 831 831 831 830 832 832 831 833 833 835 835 829 825 828 830 829 829 829 830 832 832 833 835 836
809 810 811 811 811 811 811 811 811 810 810 810 810 810 811 811 812 812 812 813 813 813 813 812 813 812 812 812 813 817 814 810 810 810 810 811 811 812 812 812 812 812 811 812 812 811 814 818 819 819 821 825 824 825 827 826 828 829 829 831 831 831 831 832 831 831 832 832 832 832 832 834 835 837 831 824 826 830 831 831 831 831 831 832 833 834 834 835
809 810 810 811 811 811 811 811 811 810 810 810 810 810 810 811 812 812 812 812 812 812 812 813 813 812 813 812 815 818 812 809 810 810 811 811 811 812 812 812 812 812 812 812 812 812 814 816 817 817 819 823 824 827 828 827 829 829 830 831 831 832 833 833 832 832 833 833 832 832 833 834 835 837 829 823 829 832 830 832 833 832 832 833 833 834 835 835
809 809 810 810 810 811 811 811 811 810 810 810 810 809 810 811 811 812 812 812 812 812 812 812 812 813 812 813 816 816 810 809 810 810 811 811 812 812 812 813 813 813 813 813 814 814 815 815 816 816 819 823 825 828 829 828 829 830 830 830 832 833 832 834 833 833 835 833 833 832 834 835 837 836 826 824 831 832 829 831 834 833 833 834 834 835 835 835
808 809 809 810 810 810 811 811 810 810 810 810 809 809 809 810 810 811 811 811 812 812 812 812 813 813 812 814 815 812 809 810 810 810 811 811 812 813 813 814 813 814 813 814 815 815 815 815 815 818 821 823 826 830 829 828 830 830 831 831 833 832 831 834 834 834 835 833 832 834 837 838 836 830 823 827 833 832 831 831 833 834 834 835 835 836 836 835
808 809 809 809 809 810 810 810 810 810 810 810 809 809 809 809 810 810 810 811 811 812 812 812 813 812 813 815 812 809 809 810 809 810 811 811 812 813 813 814 814 814 814 814 815 816 816 815 815 819 821 823 827 830 828 829 830 831 834 835 837 835 833 835 836 836 835 834 832 836 841 835 827 824 824 831 833 831 832 831 833 834 834 836 836 836 835 835
808 809 809 809 809 809 810 810 810 810 810 810 809 809 809 809 810 810 810 811 811 812 812 813 813 813 815 814 810 809 809 809 810 810 811 812 812 813 814 814 814 815 815 815 816 816 816 816 816 818 822 825 827 827 830 833 833 834 837 840 847 844 834 833 837 836 834 835 833 835 843 834 821 821 825 832 833 830 829 830 833 834 834 835 835 836 834 833
808 808 808 809 809 809 809 809 809 810 810 809 809 809 809 809 809 809 810 811 811 812 812 813 813 813 816 814 809 809 809 809 810 810 811 812 813 814 814 815 815 815 815 816 816 817 817 816 817 822 826 827 827 830 836 838 838 841 841 843 853 850 837 832 836 836 831 834 835 835 842 836 823 821 826 833 834 831 828 829 833 833 833 834 834 834 833 831
807 808 808 808 809 809 809 809 809 809 809 809 809 809 809 809 810 810 810 810 811 812 812 814 813 814 818 814 809 809 809 809 809 810 811 812 813 814 815 815 816 816 816 817 817 817 817 818 823 828 828 828 831 834 839 844 844 847 848 845 849 849 844 837 834 836 833 833 836 835 837 832 823 823 830 835 834 833 830 828 831 831 832 833 832 833 831 831
806 807 808 808 808 808 809 809 809 809 809 809 809 809 809 810 810 810 811 811 812 812 812 814 813 815 815 812 810 809 808 808 809 810 812 813 814 814 815 816 817 817 817 817 817 818 818 822 829 831 831 836 838 836 843 852 848 849 853 850 849 850 848 840 833 835 835 834 835 836 837 830 821 823 829 833 834 834 831 826 827 829 831 831 832 832 830 830
806 806 807 808 808 808 809 809 809 809 809 809 809 809 810 810 810 811 811 811 812 813 814 814 815 819 817 809 809 808 807 808 809 810 812 813 814 815 816 817 818 818 819 821 820 821 824 827 831 832 836 840 839 838 845 848 842 842 848 847 849 851 851 846 836 833 835 835 835 837 839 832 823 823 825 829 834 833 827 825 826 827 829 829 830 829 828 828
805 806 806 807 808 809 809 809 809 809 809 810 810 810 810 811 811 811 812 812 812 812 814 812 812 816 814 807 808 808 807 808 809 811 812 813 815 816 817 818 820 820 824 827 826 826 828 830 835 837 839 838 837 836 835 836 834 836 841 842 843 843 845 844 837 834 835 835 836 836 835 830 824 822 820 824 832 831 826 826 826 825 825 826 826 825 824 824
804 805 806 807 808 808 809 809 809 809 809 810 810 810 810 811 813 814 813 812 809 807 807 807 806 808 808 807 807 807 808 809 810 811 812 813 814 816 818 820 822 824 828 830 830 831 832 835 838 836 834 832 832 833 832 836 838 838 842 843 844 845 842 837 835 835 836 836 833 832 833 830 825 822 818 822 829 829 826 825 823 821 821 821 821 820 819 818
803 805 805 806 807 808 809 809 809 808 809 809 809 810 810 809 811 812 812 810 806 804 805 805 806 806 806 807 807 806 808 810 811 812 813 814 815 818 821 823 826 830 833 834 833 833 835 839 836 828 828 830 831 835 838 840 840 840 842 843 847 850 844 835 834 836 837 838 833 831 834 831 825 822 819 822 826 822 818 817 815 814 815 815 815 814 813 813
802 803 804 806 807 808 808 809 809 808 808 809 809 810 809 808 808 808 809 809 805 803 805 806 807 807 806 806 807 806 808 811 813 812 812 814 815 819 822 825 828 832 836 836 835 838 842 840 829 826 833 835 835 839 840 840 842 843 847 848 848 850 846 837 837 840 839 838 833 832 835 829 823 822 819 820 820 813 811 810 807 806 807 808 808 808 809 810
801 802 804 805 806 808 808 809 809 808 808 808 808 808 808 807 807 808 808 809 805 802 803 805 805 806 806 806 806 806 807 810 812 811 812 814 816 820 822 825 830 833 836 834 833 841 844 834 825 828 834 833 835 840 840 841 844 844 847 850 847 848 847 837 836 841 839 839 837 835 837 831 821 820 815 812 812 809 807 806 804 803 801 799 800 802 804 805
799 800 802 803 805 807 807 809 808 808 808 807 807 806 806 807 807 808 808 810 809 802 799 800 801 802 803 803 803 805 807 807 807 808 810 812 817 821 820 824 831 835 835 831 831 835 831 825 827 831 832 830 834 840 840 840 842 843 845 847 844 843 843 839 839 840 838 841 843 839 837 827 818 818 812 806 810 808 804 804 802 799 797 795 797 797 798 799
796 799 800 801 804 805 807 808 807 807 807 806 805 804 806 807 807 808 808 813 813 804 800 798 798 797 796 799 801 803 806 806 804 804 806 808 813 818 820 823 828 832 833 833 836 835 827 825 829 831 833 833 833 837 838 838 841 842 840 839 837 835 837 840 842 842 841 842 845 845 840 826 816 817 811 805 808 804 799 801 797 792 792 794 795 793 793 795
794 797 798 800 802 804 808 807 804 806 806 805 802 803 806 805 807 807 808 820 818 804 800 799 796 792 790 796 800 803 810 806 800 801 804 807 807 810 818 823 824 828 832 835 837 834 828 826 827 828 832 835 835 837 837 837 844 845 837 833 834 836 839 841 841 843 844 844 848 850 846 835 820 811 806 804 803 797 795 796 791 788 789 790 790 788 789 792
792 794 795 798 800 802 805 803 803 805 804 802 799 803 805 804 808 806 810 831 821 794 793 797 794 788 786 792 794 801 810 804 799 803 803 805 807 807 815 822 824 825 829 833 834 829 824 826 830 829 830 836 838 836 834 837 842 841 836 835 835 836 839 840 840 844 847 847 849 848 848 846 830 811 806 804 803 800 796 792 787 785 785 784 785 785 785 787
790 791 793 795 797 798 800 800 801 801 800 798 798 802 803 804 808 805 818 837 812 782 786 792 789 785 786 791 790 795 802 797 798 805 803 805 807 808 813 818 818 819 822 826 828 825 821 821 826 827 829 834 832 827 829 834 835 836 839 841 839 839 840 841 842 846 854 854 848 845 849 848 830 812 810 810 807 803 794 786 783 781 780 780 780 780 782 784
788 790 790 792 795 796 797 798 798 797 797 797 798 801 802 805 807 807 827 831 795 775 782 785 786 788 790 795 793 794 798 798 800 803 804 806 807 808 813 815 816 818 821 821 821 822 822 823 823 823 826 827 825 828 831 828 828 837 843 842 841 845 845 845 846 845 854 856 846 841 846 844 824 804 807 812 807 798 787 782 780 778 778 778 777 778 779 782
786 788 789 791 792 793 795 795 795 796 797 797 799 800 801 805 807 819 837 820 785 779 785 783 786 790 792 798 800 798 797 801 804 804 807 808 808 810 812 813 815 819 822 822 822 823 825 827 826 822 823 822 824 834 837 831 831 837 838 835 837 844 844 849 852 849 855 854 840 834 838 842 831 808 800 799 793 787 781 777 775 774 774 772 774 777 778 781
785 786 788 789 788 789 791 790 791 795 798 797 799 800 801 807 814 825 827 802 781 784 786 786 789 790 791 793 798 800 800 804 805 804 808 810 812 813 813 815 817 822 827 824 824 826 825 825 824 821 822 823 824 832 838 838 837 834 831 831 838 844 846 851 855 856 859 849 837 840 843 845 837 811 796 791 784 783 781 776 772 768 768 767 771 777 779 781
783 784 785 786 785 786 787 785 787 795 797 797 800 799 799 813 822 817 805 789 783 780 777 783 788 788 790 788 791 796 797 802 804 802 805 810 813 812 810 811 813 823 828 824 825 828 824 821 822 822 823 821 819 827 838 840 838 834 831 836 844 853 856 855 858 864 862 847 843 851 847 842 829 803 793 791 781 778 780 779 775 770 769 767 770 776 778 781
781 782 783 783 784 784 784 784 788 794 796 796 801 802 802 812 814 802 792 783 776 773 771 775 781 784 788 789 792 794 795 798 802 802 803 806 811 811 807 806 807 811 816 821 828 829 824 823 823 820 820 817 813 820 830 834 835 833 830 834 843 857 863 859 862 868 858 842 845 854 846 835 818 794 786 783 773 771 775 778 778 775 774 772 772 776 777 781
780 780 780 780 782 781 782 785 787 790 794 795 800 807 810 807 795 786 784 773 767 771 773 774 780 785 786 786 788 790 793 799 801 802 804 807 812 813 808 807 807 807 811 820 826 826 823 818 814 813 811 810 808 808 812 821 830 831 827 829 834 842 847 846 847 848 840 836 844 850 840 821 802 786 780 779 775 775 775 776 778 778 779 780 778 777 776 778
778 778 778 778 779 779 780 783 785 788 793 795 800 805 807 799 786 778 774 766 767 774 776 777 782 789 789 787 788 786 786 794 800 802 804 805 806 805 804 803 804 805 808 815 818 821 822 811 803 807 806 805 805 804 807 815 827 834 832 831 830 828 827 833 843 845 844 845 843 839 826 806 792 781 777 779 775 772 773 775 775 773 777 781 777 775 775 776
776 776 776 775 774 776 779 781 784 787 788 795 803 802 793 781 770 765 760 758 766 773 779 784 785 789 792 791 792 790 785 790 798 802 804 804 801 798 797 793 794 797 795 800 809 815 818 812 808 810 808 807 808 805 807 810 817 831 834 828 828 828 822 828 845 855 857 849 831 822 813 801 794 781 772 775 770 767 771 770 767 767 772 776 770 768 773 775
775 774 773 771 771 773 776 778 782 785 785 793 799 793 785 772 759 756 754 754 763 768 773 780 780 784 789 790 792 791 787 790 797 799 801 804 798 790 792 787 785 788 783 785 796 800 802 806 811 813 809 812 814 809 810 811 813 825 829 823 825 831 828 830 840 849 856 849 827 817 810 802 799 785 772 775 774 768 767 765 764 766 768 769 763 762 769 772
774 774 770 766 767 771 774 777 780 783 785 791 792 786 786 778 760 756 757 755 761 764 765 770 771 775 781 785 786 787 785 787 795 797 796 801 791 776 781 784 780 781 778 780 788 791 793 799 812 820 814 813 815 810 812 817 816 817 817 816 820 826 830 836 840 839 845 845 827 817 814 804 797 785 770 769 768 761 759 761 764 762 759 760 757 756 764 770
775 774 767 760 763 768 771 775 777 780 781 786 788 783 782 777 762 758 759 757 757 759 760 760 763 770 776 776 778 783 784 782 789 793 789 792 784 768 770 773 773 777 778 779 785 788 791 794 806 820 819 815 815 811 813 817 818 819 818 819 820 821 825 830 834 833 834 835 825 814 807 791 782 776 765 761 759 752 751 757 759 754 752 754 752 752 761 767
775 774 763 756 760 764 768 773 774 774 775 776 777 773 772 770 764 762 762 761 758 755 755 754 756 764 771 772 773 777 779 778 783 785 780 780 777 767 765 765 768 775 777 780 784 786 791 792 800 817 823 817 811 806 804 805 810 814 817 820 821 823 827 827 829 830 827 828 829 822 800 772 765 767 757 752 754 751 751 752 751 751 751 751 751 754 760 765
775 773 761 754 759 760 766 772 768 766 770 772 771 768 766 763 761 762 764 766 765 758 755 754 753 756 762 768 770 771 775 777 780 780 776 774 770 763 760 758 762 772 780 787 787 783 787 791 798 814 819 810 802 800 800 798 797 800 804 807 808 812 821 824 826 827 825 821 820 820 799 761 752 759 751 749 752 750 754 753 747 749 749 746 750 756 760 761
774 770 758 754 756 758 764 768 763 760 765 765 762 761 760 756 756 759 761 766 770 767 763 758 753 753 755 759 761 764 770 773 777 777 771 767 762 755 753 754 757 764 772 780 779 773 779 787 794 805 808 804 801 804 808 804 798 799 801 799 799 803 807 810 813 817 822 819 812 820 808 764 747 756 753 752 753 750 757 757 748 746 747 745 749 755 759 759
771 764 757 755 755 755 760 762 759 759 760 757 755 756 756 754 755 757 758 763 767 768 768 761 754 752 752 753 755 760 764 766 770 770 764 762 758 751 752 754 756 761 764 770 773 771 778 785 790 798 802 801 802 803 805 805 802 802 802 800 800 800 796 798 802 805 810 808 808 822 810 765 749 760 759 758 760 758 762 761 750 745 745 746 748 752 755 758
767 762 757 757 757 755 756 755 753 756 758 756 756 757 756 754 753 753 754 757 758 760 764 760 754 752 750 750 752 755 756 757 761 762 758 758 755 749 751 753 755 757 757 759 763 767 776 781 785 795 801 801 803 804 802 803 803 799 797 798 796 794 797 801 805 808 804 793 795 808 794 760 753 761 758 758 760 756 757 759 756 750 745 744 746 749 754 757
766 762 756 755 756 754 750 747 746 749 752 754 756 756 755 753 750 748 749 752 752 754 757 755 753 752 751 750 750 752 751 748 751 756 756 755 753 750 750 751 753 752 749 748 749 754 765 771 773 785 794 793 791 788 783 789 799 798 793 795 794 793 798 797 800 808 800 787 789 790 774 757 756 756 753 755 756 751 749 753 755 753 750 749 747 748 753 756
766 761 754 752 752 750 745 742 743 745 746 749 753 753 753 751 747 745 747 751 752 751 751 750 751 754 754 753 752 753 753 748 746 751 754 753 750 749 748 750 751 749 747 749 750 753 760 762 761 765 770 767 762 761 764 774 789 792 785 788 792 792 793 794 797 797 789 788 789 774 760 758 756 753 752 752 752 750 748 747 746 746 750 751 748 749 753 755
764 757 750 748 746 744 742 740 741 742 742 745 747 747 748 749 746 745 747 746 746 749 750 749 751 752 753 755 757 754 752 752 750 749 750 749 747 747 748 750 750 747 748 751 752 755 759 760 758 755 753 748 744 752 762 765 771 776 777 782 787 788 792 794 791 779 776 787 780 759 760 765 754 750 753 749 749 750 749 747 742 740 744 744 744 748 750 751
760 753 745 744 743 739 737 735 736 738 737 739 741 739 741 745 744 743 744 743 742 744 748 750 751 749 747 750 756 757 753 754 753 748 746 748 749 749 750 752 751 748 750 753 753 755 757 756 754 752 751 745 739 750 760 758 757 762 767 773 778 783 788 786 778 769 770 776 762 748 760 760 744 745 749 745 746 745 743 743 740 740 742 741 742 744 743 746
755 751 745 744 743 739 735 734 736 737 735 734 735 732 733 739 740 738 737 740 742 741 742 746 746 745 744 744 751 755 753 751 750 744 743 746 748 748 749 750 748 748 750 751 752 754 754 752 749 750 753 748 742 751 759 756 756 759 762 765 769 774 776 770 766 765 766 766 753 750 761 752 735 737 742 740 742 740 739 741 740 740 741 739 739 739 738 741
751 749 746 744 743 740 738 737 738 738 735 733 731 727 725 728 732 733 731 733 738 739 738 738 736 736 740 741 745 747 744 742 741 737 737 741 744 744 744 741 740 747 752 749 749 753 753 751 748 750 756 752 744 749 758 757 756 757 760 764 765 764 764 762 762 766 770 769 758 758 764 750 731 732 737 737 738 738 739 740 738 738 738 737 737 737 737 738
746 744 744 746 743 738 736 735 735 737 736 732 729 727 724 721 720 724 725 724 726 729 731 731 729 731 735 737 739 738 734 735 735 730 730 734 734 733 734 733 733 742 750 749 747 751 753 753 752 754 759 752 739 745 757 759 759 761 761 761 759 755 756 759 762 762 764 764 761 766 765 743 727 731 736 735 736 736 736 736 734 734 735 735 735 734 735 736
744 744 744 747 743 735 734 734 734 734 731 726 725 724 723 720 716 719 723 721 719 721 722 723 724 727 730 732 731 726 720 722 725 726 730 732 730 729 731 732 731 736 745 748 749 751 752 752 752 755 757 749 739 745 756 763 768 765 752 741 741 746 751 756 757 754 752 754 757 758 746 726 722 731 734 735 737 736 733 731 730 729 730 732 734 733 732 731